Hourly Data Report for October 19, 2017

VICTORIA UNIVERSITY CS
BRITISH COLUMBIA

48°27'25.200" N
123°18'16.600" W
60.10 m
1018598
71783
WYJ

Download Data

Hourly Data (October 2017)
Hourly Data Report for October 19, 2017
TIME
LST
Temp Definition
°C
Dew Point Definition
°C
Rel Hum Definition
%
Precip. Amount Definition
mm

Wind Dir Definition
10's deg

Wind Spd Definition
km/h
Visibility Definition
km
Stn Press Definition
kPa
Hmdx Definition


Wind Chill Definition


Weather Definition


00:00 9.2 8.7 97 0.0 14 2   99.28     LegendNANA
01:00 9.7 9.2 97 0.0 17 4   99.30     LegendNANA
02:00 10.1 9.7 98 0.3 15 6   99.29     LegendNANA
03:00 9.7 9.3 97 0.2 15 4   99.28     LegendNANA
04:00 9.5 9.1 98 0.0 12 1   99.26     LegendNANA
05:00 9.6 9.2 98 0.0 17 5   99.23     LegendNANA
06:00 9.6 9.2 97 0.8 17 4   99.21     LegendNANA
07:00 9.6 9.2 98 0.0 9 2   99.14     LegendNANA
08:00 10.0 9.7 98 0.0 0 1   99.12     LegendNANA
09:00 10.5 10.2 98 0.0 7 4   99.14     LegendNANA
10:00 10.1 9.7 97 0.5 32 3   99.16     LegendNANA
11:00 10.1 9.2 94 2.3 26 4   99.18     LegendNANA
12:00 9.8 8.6 92 2.4 26 3   99.13     LegendNANA
13:00 9.2 8.2 94 2.0 24 8   99.09     LegendNANA
14:00 9.4 8.8 96 0.5 17 6   99.00     LegendNANA
15:00 10.6 9.3 92 0.0 18 3   99.00     LegendNANA
16:00 9.7 9.0 95 0.0 14 3   98.98     LegendNANA
17:00 9.8 9.0 95 0.0   0   98.98     LegendNANA
18:00 9.3 8.8 96 0.0 0 1   99.00     LegendNANA
19:00 9.3 8.8 97 0.0 28 4   99.01     LegendNANA
20:00 9.1 8.5 96 0.2 0 1   99.04     LegendNANA
21:00 8.4 7.7 95 1.3 24 3   99.08     LegendNANA
22:00 8.1 7.5 96 0.9 26 5   99.07     LegendNANA
23:00 8.0 7.3 96 0.2 24 7   99.12     LegendNANA

Notes on Data Quality.

Legend

  • E = Estimated
  • M = Missing
  • NA = Not Available*
  • [empty] = Indicates an unobserved value
Date modified: